SAS3006 ENBO-ENTC

Flight info

Callsign SAS3006
Flight time N/A
Altitude 21000
Route PENNO DCT ATWEG
Aircraft A21N/M-SDE2E3FGHIRWXY/LB1

Departure

Time 2026-05-01 14:04
Airport Bodø Airport (ENBO)

Arrival

Time N/A
Airport Tromsø Airport (ENTC)
Time Latitude Longitude Altitude Speed Heading
2026-05-01 13:37 67.27175 14.36616 44 ft 0 kts 68°
2026-05-01 13:56 67.27172 14.36601 45 ft 4 kts 68°
2026-05-01 13:56 67.27162 14.36537 44 ft 4 kts 68°
2026-05-01 13:56 67.27152 14.36474 45 ft 2 kts 68°
2026-05-01 13:57 67.27151 14.36466 46 ft 22 kts 68°
2026-05-01 13:58 67.27151 14.36467 45 ft 0 kts 68°
2026-05-01 13:59 67.27151 14.36476 45 ft 3 kts 77°
2026-05-01 13:59 67.27119 14.36570 47 ft 10 kts 138°
2026-05-01 13:59 67.27075 14.36680 46 ft 10 kts 115°
2026-05-01 13:59 67.27077 14.36878 48 ft 12 kts 79°
2026-05-01 14:00 67.27093 14.37108 50 ft 14 kts 79°
2026-05-01 14:00 67.27111 14.37369 52 ft 16 kts 79°
2026-05-01 14:00 67.27135 14.37611 53 ft 15 kts 77°
2026-05-01 14:00 67.27154 14.37902 57 ft 18 kts 86°
2026-05-01 14:01 67.27157 14.38237 56 ft 10 kts 95°
2026-05-01 14:01 67.27109 14.38396 49 ft 12 kts 140°
2026-05-01 14:01 67.27096 14.38601 55 ft 12 kts 79°
2026-05-01 14:01 67.27113 14.38811 53 ft 14 kts 79°
2026-05-01 14:02 67.27135 14.39107 51 ft 19 kts 79°
2026-05-01 14:02 67.27167 14.39479 50 ft 23 kts 79°
2026-05-01 14:02 67.27174 14.39563 47 ft 0 kts 53°
2026-05-01 14:02 67.27179 14.39560 48 ft 2 kts 18°
2026-05-01 14:03 67.27178 14.39523 46 ft 3 kts 258°
2026-05-01 14:03 67.27171 14.39463 51 ft 0 kts 255°
2026-05-01 14:03 67.27170 14.39453 51 ft 6 kts 255°
2026-05-01 14:04 67.27111 14.38761 53 ft 75 kts 257°
2026-05-01 14:04 67.26946 14.36846 66 ft 140 kts 255°
2026-05-01 14:04 67.26739 14.34313 821 ft 148 kts 255°
2026-05-01 14:04 67.26534 14.31608 1542 ft 169 kts 257°
2026-05-01 14:05 67.26350 14.28326 1952 ft 205 kts 269°
2026-05-01 14:05 67.26880 14.24312 1944 ft 276 kts 300°
2026-05-01 14:05 67.28429 14.20687 1871 ft 320 kts 324°
2026-05-01 14:05 67.30452 14.18736 1815 ft 302 kts 339°